Salamanca, Spain

9:19 PM CEST on April 25, 2017 (GMT +0200)
Matacan

Weather History for LESA - January, 2014

Change the Weather History Date:

Monday, January 20, 2014

  Actual Average Record
Temperature  
Mean Temperature 38 °F -  
Max Temperature 46 °F - - ()
Min Temperature 30 °F - - ()
Degree Days  
Heating Degree Days 27    
Moisture  
Dew Point 33 °F    
Average Humidity 80    
Maximum Humidity 93    
Minimum Humidity 49    
Precipitation  
Precipitation 0.00 in 0.05 in - ()
Sea Level Pressure  
Sea Level Pressure 30.01 in    
Wind  
Wind Speed 10 mph ()    
Max Wind Speed 16 mph    
Max Gust Speed -    
Visibility 6.4 miles    
Events      
T = Trace of Precipitation, MM = Missing Value Source: Averaged Metar Reports

Daily Weather History Graph

Daily Weather History Graph

Search for Another Location

Airport or City:

Trip Planner

Search our weather history database for the weather conditions in past years. The results will help you decide how hot, cold, wet, or windy it might be!

Date:

Astronomy

Jan. 20, 2014 Rise Set
Actual Time 8:42 AM CET 6:24 PM CET
Civil Twilight 8:12 AM CET 6:54 PM CET
Nautical Twilight 7:38 AM CET 7:27 PM CET
Astronomical Twilight 7:05 AM CET 8:00 PM CET
Moon 10:48 PM CET (1/20) 10:32 AM CET (1/20)
Length of Visible Light 10h 42m
Length of Day
9h 42m
Waning Gibbous, 84% of the Moon is Illuminated
Jan 20
Waning Gibbous
Jan 24
Last Quarter
Jan 30
New
Feb 6
First Quarter
Feb 15
Full

Hourly Weather History & Observations

Time (CET) Temp. Windchill Dew Point Humidity Pressure Visibility Wind Dir Wind Speed Gust Speed Precip Events Conditions
12:00 AM 34 °F - 31 °F 86%  in - West 10.4 mph - -  
12:00 AM 33.8 °F 25.8 °F 32.0 °F 93% 29.86 in 6.2 mi West 10.4 mph - N/A   Partly Cloudy
12:30 AM 33.8 °F 24.8 °F 32.0 °F 93% 29.89 in - West 12.7 mph - N/A   Clear
1:00 AM 33 °F - 31 °F 88%  in 9 mi West 10.4 mph - -  
1:00 AM 33.8 °F 27.0 °F 30.2 °F 87% 29.89 in - West 8.1 mph - N/A   Clear
1:30 AM 33.8 °F 26.4 °F 30.2 °F 87% 29.89 in - West 9.2 mph - N/A   Clear
2:00 AM 34 °F - 31 °F 85%  in - West 11.5 mph - -  
2:00 AM 33.8 °F 25.3 °F 32.0 °F 93% 29.89 in 6.2 mi West 11.5 mph - N/A   Partly Cloudy
2:30 AM 33.8 °F 26.4 °F 32.0 °F 93% 29.89 in 6.2 mi West 9.2 mph - N/A   Partly Cloudy
3:00 AM 34 °F - 31 °F 84%  in - West 11.5 mph - -   Unknown Precipitation
3:00 AM 33.8 °F 25.3 °F 30.2 °F 87% 29.89 in 6.2 mi West 11.5 mph - N/A   Partly Cloudy
3:30 AM 33.8 °F 27.0 °F 30.2 °F 87% 29.89 in 6.2 mi West 8.1 mph - N/A   Partly Cloudy
4:00 AM 34 °F - 31 °F 86%  in 1 mi West 9.2 mph - -   Mostly Cloudy
4:00 AM 33.8 °F 26.4 °F 32.0 °F 93% 29.92 in 6.2 mi West 9.2 mph - N/A   Scattered Clouds
4:30 AM 33.8 °F 25.3 °F 30.2 °F 87% 29.92 in 6.2 mi WSW 11.5 mph - N/A   Scattered Clouds
5:00 AM 34 °F - 32 °F 88%  in - WSW 11.5 mph - -  
5:00 AM 33.8 °F 25.8 °F 32.0 °F 93% 29.92 in 6.2 mi West 10.4 mph - N/A   Mostly Cloudy
5:30 AM 33.8 °F 24.3 °F 32.0 °F 93% 29.92 in 6.2 mi WSW 13.8 mph - N/A   Mostly Cloudy
6:00 AM 35 °F - 32 °F 86%  in - WSW 11.5 mph - -   Unknown Precipitation
6:00 AM 35.6 °F 27.5 °F 32.0 °F 87% 29.95 in 6.2 mi WSW 11.5 mph - N/A   Mostly Cloudy
6:30 AM 35.6 °F 27.5 °F 32.0 °F 87% 29.95 in 6.2 mi WSW 11.5 mph - N/A   Mostly Cloudy
7:00 AM 35 °F - 33 °F 87%  in 6 mi WSW 15.0 mph - -   Scattered Clouds
7:00 AM 35.6 °F 26.6 °F 32.0 °F 87% 29.95 in 6.2 mi WSW 13.8 mph - N/A   Mostly Cloudy
7:30 AM 33.8 °F 25.3 °F 32.0 °F 93% 29.98 in 6.2 mi West 11.5 mph - N/A   Partly Cloudy
8:00 AM 34 °F - 32 °F 89%  in - WSW 8.1 mph - -   Unknown Precipitation
8:00 AM 33.8 °F 27.0 °F 32.0 °F 93% 29.98 in 6.2 mi WSW 8.1 mph - N/A   Partly Cloudy
8:30 AM 33.8 °F 26.4 °F 32.0 °F 93% 30.01 in 6.2 mi WSW 9.2 mph - N/A   Partly Cloudy
9:00 AM 33 °F - 32 °F 93%  in - WSW 8.1 mph - -  
9:00 AM 33.8 °F 27.0 °F 32.0 °F 93% 30.01 in 6.2 mi WSW 8.1 mph - N/A   Partly Cloudy
9:30 AM 35.6 °F 28.6 °F 33.8 °F 93% 30.01 in 6.2 mi West 9.2 mph - N/A   Partly Cloudy
10:00 AM 36 °F - 34 °F 88%  in 9 mi West 12.7 mph - -   Scattered Clouds
10:00 AM 35.6 °F 27.1 °F 33.8 °F 93% 30.04 in 6.2 mi West 12.7 mph - N/A   Partly Cloudy
10:30 AM 37.4 °F 29.3 °F 33.8 °F 87% 30.04 in 6.2 mi West 12.7 mph - N/A   Partly Cloudy
11:00 AM 39 °F - 35 °F 80%  in - West 13.8 mph - -  
11:00 AM 39.2 °F 31.6 °F 35.6 °F 87% 30.04 in 6.2 mi West 12.7 mph - N/A   Partly Cloudy
11:30 AM 41.0 °F 33.9 °F 35.6 °F 81% 30.06 in 6.2 mi West 12.7 mph - N/A   Scattered Clouds
12:00 PM 41 °F - 34 °F 68%  in - West 15.0 mph - -   Unknown Precipitation
12:00 PM 41.0 °F 33.1 °F 33.8 °F 76% 30.06 in 6.2 mi West 15.0 mph - N/A   Mostly Cloudy
12:30 PM 41.0 °F 33.5 °F 33.8 °F 76% 30.06 in 6.2 mi West 13.8 mph - N/A   Mostly Cloudy
1:00 PM 42 °F - 33 °F 59%  in 9 mi West 15.0 mph - -   Mostly Cloudy
1:00 PM 41.0 °F 33.9 °F 32.0 °F 70% 30.06 in 6.2 mi West 12.7 mph - N/A   Mostly Cloudy
1:30 PM 42.8 °F 35.8 °F 33.8 °F 70% 30.04 in 6.2 mi West 13.8 mph - N/A   Mostly Cloudy
2:00 PM 44 °F - 33 °F 53%  in - West 13.8 mph - -  
2:00 PM 44.6 °F 38.1 °F 33.8 °F 66% 30.04 in 6.2 mi West 13.8 mph - N/A   Mostly Cloudy
2:30 PM 42.8 °F 35.8 °F 32.0 °F 66% 30.04 in 6.2 mi West 13.8 mph - N/A   Mostly Cloudy
3:00 PM 45 °F - 32 °F 49%  in - West 11.5 mph - -  
3:00 PM 44.6 °F 38.8 °F 32.0 °F 61% 30.04 in 6.2 mi West 11.5 mph - N/A   Mostly Cloudy
3:30 PM 42.8 °F 37.0 °F 33.8 °F 70% 30.01 in 6.2 mi West 10.4 mph - N/A   Mostly Cloudy
4:00 PM 44 °F - 33 °F 54%  in 9 mi West 10.4 mph - -   Mostly Cloudy
4:00 PM 44.6 °F 38.8 °F 33.8 °F 66% 30.04 in 6.2 mi West 11.5 mph - N/A   Scattered Clouds
4:30 PM 44.6 °F 38.1 °F 33.8 °F 66% 30.04 in 6.2 mi West 13.8 mph - N/A   Mostly Cloudy
5:00 PM 44 °F - 32 °F 52%  in - West 16.1 mph - -  
5:00 PM 44.6 °F 38.1 °F 33.8 °F 66% 30.04 in 6.2 mi West 13.8 mph - N/A   Mostly Cloudy
5:30 PM 42.8 °F 36.2 °F 33.8 °F 70% 30.06 in 6.2 mi West 12.7 mph - N/A   Mostly Cloudy
6:00 PM 43 °F - 33 °F 58%  in - West 10.4 mph - -  
6:00 PM 42.8 °F 37.5 °F 33.8 °F 70% 30.06 in 6.2 mi West 9.2 mph - N/A   Mostly Cloudy
6:30 PM 42.8 °F 37.5 °F 33.8 °F 70% 30.06 in 6.2 mi West 9.2 mph - N/A   Mostly Cloudy
7:00 PM 42 °F - 34 °F 64%  in 9 mi West 4.6 mph - -   Mostly Cloudy
7:00 PM 42.8 °F 41.1 °F 33.8 °F 70% 30.06 in 6.2 mi West 3.5 mph - N/A   Mostly Cloudy
7:30 PM 41.0 °F 37.1 °F 33.8 °F 76% 30.06 in 6.2 mi West 5.8 mph - N/A   Mostly Cloudy
8:00 PM 40 °F - 34 °F 71%  in - West 5.8 mph - -  
8:00 PM 41.0 °F 37.1 °F 33.8 °F 76% 30.09 in 6.2 mi West 5.8 mph - N/A   Mostly Cloudy
8:30 PM 39.2 °F 35.0 °F 33.8 °F 81% 30.09 in 6.2 mi West 5.8 mph - N/A   Mostly Cloudy
9:00 PM 39 °F - 34 °F 77%  in - West 4.6 mph - -  
9:00 PM 39.2 °F 35.9 °F 35.6 °F 87% 30.09 in 6.2 mi West 4.6 mph - N/A   Mostly Cloudy
9:30 PM 39.2 °F 37.0 °F 33.8 °F 81% 30.09 in 6.2 mi WSW 3.5 mph - N/A   Mostly Cloudy
10:00 PM 38 °F - 34 °F 81%  in 9 mi WSW 3.5 mph - -   Mostly Cloudy
10:00 PM 37.4 °F 34.9 °F 33.8 °F 87% 30.09 in 6.2 mi WSW 3.5 mph - N/A   Mostly Cloudy
10:30 PM 39.2 °F 37.0 °F 35.6 °F 87% 30.09 in 6.2 mi SW 3.5 mph - N/A   Mostly Cloudy
11:00 PM 39 °F - 35 °F 81%  in - Calm Calm - -  
11:00 PM 39.2 °F - 35.6 °F 87% 30.09 in 6.2 mi Calm Calm - N/A   Mostly Cloudy
11:30 PM 39.2 °F - 35.6 °F 87% 30.09 in 6.2 mi Calm Calm - N/A   Mostly Cloudy